SCP
0 0 0 0 0 -0 -0 -0 -0 -0 -0 -0 -0 -0 -0 -0 -0 -0 0 0 0 0 0 0 0 -0 -0 0 0 0 0 0 0 0 -0 0 0 0 -0 -0 0 0 0 -0 -0
0 0 0 0 0 -0 -0 -0 -0 -0 -0 -0 -0 -0 -0 -0 -0 -0 0 0 0 -0 -0 0 -0 -0 0 -0 0 0 0 0 0 -0 0 0 0 0 0 -0 0 0 0 -0 0
0 0 0 0 -0 -0 -0 -0 -0 -0 -0 -0 -0 -0 -0 -0 0 0 0 0 0 0 0 0 -0 -0 0 -0 0 0 -0 -0 0 0 0 0 0 0 0 0 0 0 0 0 0
0 0 0 0 -0 -0 -0 -0 -0 -0 -0 -0 -0 -0 -0 -0 0 0 -0 -0 0 0 0 0 -0 0 0 -0 0 0 0 -0 -0 0 -0 0 0 0 0 0 -0 -0 0 0 0
0 0 0 0 -0 -0 -0 -0 -0 -0 -0 -0 -0 -0 -0 -0 -0 -0 -0 -0 0 0 0 -0 -0 0 -0 -0 -0 0 -0 0 -0 0 -0 -0 -0 0 -0 -0 -0 0 0 0 0
0 0 0 0 -0 -0 -0 -0 -0 -0 -0 -0 -0 -0 0 0 -0 -0 -0 -0 -0 -0 -0 -0 0 0 -0 0 -0 0 -0 -0 -0 -0 0 -0 -0 0 -0 -0 0 0 0 0 0
0 0 0 0 0 -0 -0 -0 -0 -0 -0 -0 -0 -0 0 -0 -0 -0 -0 -0 -0 -0 -0 0 0 -0 0 0 0 0 0 -0 -0 0 0 0 0 0 -0 0 0 0 0 0 0
0 0 0 0 -0 -0 -0 -0 -0 -0 -0 -0 0 -0 -0 -0 0 -0 -0 -0 -0 -0 -0 -0 0 0 -0 -0 0 0 0 0 0 0 0 0 0 -0 0 0 0 -0 -0 -0 -0
0 0 0 -0 -0 -0 -0 -0 -0 -0 -0 0 -0 0 -0 0 -0 -0 -0 -0 -0 -0 0 -0 0 -0 -0 0 -0 0 0 -0 -0 0 0 0 -0 -0 0 0 0 -0 -1 -0 -1
0 0 0 0 -0 -0 -0 -0 -0 0 0 -0 -0 0 0 -0 0 0 0 -0 -0 -0 0 0 0 0 0 0 -0 0 0 0 0 0 0 -0 -0 -0 0 0 -0 -0 0 0 0
0 0 -0 -0 -0 -0 0 0 0 0 -0 0 0 0 0 -0 0 -0 0 0 0 0 -0 -0 0 -0 0 0 -0 -0 -0 -0 -0 0 0 -0 0 0 0 -0 -0 -0 -0 -0 0
0 0 -0 -0 -0 -0 0 0 0 0 -0 -0 -0 -0 -0 0 -0 -0 0 0 0 -0 -0 -0 0 0 0 -0 -0 -0 0 0 0 0 -0 0 0 0 0 -0 -0 -0 -0 -0 -0
0 0 0 -0 -0 0 0 0 0 -0 0 0 0 0 0 0 -0 -0 -0 -0 -0 -0 -0 0 0 0 0 -0 -0 -0 -0 0 0 0 0 0 0 0 0 -0 -0 -0 0 0 0
0 0 0 -0 0 0 0 0 0 0 0 0 0 0 0 -0 -0 0 0 0 0 -0 0 0 -0 -0 -0 -0 0 -0 0 -0 -0 -0 0 0 0 0 0 -0 -0 0 0 0 0
0 0 0 0 0 0 0 0 0 0 0 0 -0 0 -0 -0 0 0 0 -0 -0 -0 0 -0 0 -0 -0 0 -0 0 0 -0 -0 -0 -0 -0 0 0 -0 0 0 0 0 0 0
0 0 0 0 0 0 0 0 0 0 0 0 0 0 0 0 -0 0 -0 0 -0 0 -0 -0 -0 0 0 -0 -0 -0 -0 -0 -0 0 -0 0 0 0 0 0 0 0 0 0 0
0 0 0 0 0 0 0 0 0 0 0 0 0 0 0 -0 -0 -0 -0 -0 0 0 0 -0 0 -0 0 -0 0 -0 0 0 -0 0 0 -0 0 0 0 0 0 0 0 0 0
0 -0 0 0 0 0 0 0 0 0 0 -0 -0 -0 -0 -0 -0 -0 -0 0 -0 -0 0 -0 0 0 0 0 0 0 -0 0 0 0 0 0 0 0 0 0 0 0 0 0 0
0 -0 0 0 0 0 0 0 0 0 0 0 -0 -0 0 0 -0 -0 0 -0 -0 -0 -0 0 0 0 0 0 0 0 0 0 0 0 -0 0 0 0 0 0 0 0 0 0 0
0 0 0 0 0 0 0 0 0 0 0 0 0 -0 0 -0 -0 -0 0 0 0 -0 0 0 0 0 0 0 0 0 -0 0 0 0 0 -0 0 0 0 0 0 0 0 0 0
0 0 0 0 0 0 0 0 0 0 0 0 0 0 0 0 -0 0 0 0 0 0 0 0 0 0 0 0 0 -0 0 0 0 0 0 0 0 0 0 0 0 0 0 0 0
0 0 0 0 0 0 0 0 0 0 0 0 0 0 0 0 0 0 0 0 0 0 0 0 0 -0 -0 0 0 0 0 0 0 0 0 0 0 0 0 0 0 0 0 0 0
0 0 0 0 0 0 0 0 0 0 0 0 0 0 0 0 0 0 0 0 -0 0 0 0 0 0 -0 0 0 0 0 0 0 0 0 0 0 0 0 0 0 0 0 0 0
0 0 0 0 0 0 0 0 0 0 0 0 0 0 0 0 0 0 0 0 0 0 0 0 0 0 0 0 0 0 0 0 0 0 0 0 0 0 0 0 0 0 0 0 0
0 0 0 0 0 0 0 0 0 0 0 0 0 0 0 0 0 0 0 0 0 -0 -0 0 0 0 0 0 0 0 0 0 0 0 0 0 0 0 0 0 0 0 0 0 0
0 0 0 0 0 0 0 0 0 0 0 0 0 0 0 0 0 0 0 0 0 0 0 0 0 0 0 0 0 0 0 0 0 0 0 0 0 0 0 0 0 0 0 0 0
0 0 0 0 0 0 0 0 0 0 0 0 0 0 0 0 -0 0 0 0 0 0 0 0 0 0 0 0 0 0 0 0 0 0 0 0 0 0 0 0 0 0 0 0 0
Wind_Speed_500mb
24 26 28 30 32 33 36 35 34 35 35 33 30 30 29 29 16 11 4 11 19 18 3 6 10 9 17 21 22 33 6 14 20 17 13 37 15 32 28 21 35 31 43 46 63
25 27 28 31 33 33 36 36 34 35 34 29 28 28 29 28 19 20 15 20 19 11 8 11 29 27 33 32 31 10 5 18 16 13 13 29 28 22 19 32 22 39 38 57 61
25 27 30 32 34 34 36 36 34 34 31 27 27 25 27 24 21 4 6 9 6 5 6 10 21 28 32 43 47 18 14 19 21 33 38 18 24 31 17 17 35 6 51 57 49
28 28 31 32 35 35 37 35 32 31 30 24 24 22 22 15 8 4 5 7 1 6 8 11 20 35 10 13 29 3 26 32 13 26 24 17 31 22 23 27 37 35 1 42 50
28 28 31 33 35 37 37 35 30 29 27 21 21 18 16 10 16 10 2 6 10 4 7 22 41 36 11 20 18 8 18 25 31 32 20 18 29 17 32 40 24 22 15 8 44
31 31 32 35 36 37 36 32 29 27 23 17 16 14 8 10 5 11 2 9 6 15 26 24 31 37 19 28 13 26 24 27 36 43 22 12 22 14 45 31 20 13 15 10 19
31 33 33 36 36 36 34 30 30 23 17 14 13 13 12 15 11 9 9 8 17 17 29 21 18 22 36 19 26 34 14 19 27 35 10 4 14 19 34 8 15 23 26 9 10
33 35 36 36 36 35 31 30 25 15 12 11 10 8 12 6 13 14 9 13 10 10 18 19 21 28 35 34 42 17 11 10 19 13 10 7 18 14 12 9 13 40 79 88 87
34 35 35 35 34 34 30 28 16 11 5 7 1 8 16 11 7 3 10 20 19 14 16 18 19 22 32 12 14 10 18 19 8 10 5 13 13 37 53 62 59 82 104 87 91
34 36 35 34 31 29 28 24 12 6 5 4 12 13 11 7 8 9 5 14 9 20 20 28 15 6 10 4 10 15 11 11 15 6 16 33 21 32 50 76 54 64 61 55 62
36 36 33 31 25 25 37 14 14 6 20 17 25 18 12 1 7 9 7 9 17 21 14 34 4 10 5 8 12 13 13 13 13 10 22 20 22 39 62 85 67 34 59 29 10
36 36 34 28 13 17 28 25 20 20 22 23 27 32 16 8 8 5 5 15 20 14 20 9 11 5 11 11 13 16 12 14 11 13 23 10 15 23 44 18 55 58 52 52 30
35 36 33 23 4 14 13 19 20 21 10 22 23 25 18 14 16 19 8 16 18 18 21 4 9 5 11 16 12 16 9 10 9 16 14 11 8 6 27 42 70 29 60 63 61
33 34 33 18 3 18 20 25 25 15 4 8 8 9 20 13 11 3 4 13 9 11 16 5 9 7 17 10 16 8 12 14 16 9 11 12 5 13 12 16 48 48 52 63 54
32 33 23 26 17 4 19 33 19 6 4 19 14 17 19 17 16 6 11 14 18 22 6 13 7 5 12 10 10 11 14 10 18 16 12 11 11 11 12 4 7 31 58 63 58
30 33 25 22 21 6 21 17 9 4 6 9 13 13 12 25 6 11 10 13 19 11 15 16 10 2 6 15 16 17 11 17 9 7 6 10 11 10 7 9 21 41 57 58 63
30 30 28 20 13 18 17 21 4 3 15 9 8 18 19 14 9 13 13 12 5 2 10 17 13 11 11 9 20 15 14 10 12 12 7 10 11 15 24 24 29 36 50 56 52
30 29 23 18 15 9 18 5 2 17 11 13 14 23 17 16 13 19 8 4 23 18 10 13 8 4 12 8 8 12 12 8 3 5 10 9 7 6 19 7 47 53 44 40 49
27 25 28 5 9 14 10 2 7 13 9 2 8 9 10 6 7 5 20 16 11 15 10 13 11 5 10 1 5 14 12 6 6 8 8 5 8 8 13 42 31 40 45 40 45
25 25 10 14 8 2 2 10 6 13 20 12 7 7 13 13 8 9 12 13 12 21 24 13 7 5 5 4 9 10 3 16 10 9 10 7 5 9 7 13 15 23 35 40 37
16 12 11 2 5 3 5 11 12 15 20 14 13 11 13 15 11 5 13 15 17 17 23 14 10 18 12 11 12 12 11 11 7 10 4 8 3 6 14 14 16 28 30 23 24
7 6 4 19 4 11 6 8 8 10 3 6 9 11 11 18 19 14 15 9 20 34 8 9 3 7 15 7 21 13 12 12 9 8 3 6 6 15 18 23 23 23 22 24 16
6 13 11 18 5 6 16 10 9 10 4 4 8 14 16 13 11 17 13 19 38 13 5 11 8 8 19 10 19 12 12 9 7 6 3 3 3 15 37 28 22 18 27 32 42
6 5 9 18 22 6 8 7 3 12 15 13 12 11 11 12 10 7 15 10 28 13 7 10 5 2 7 13 7 12 17 11 4 6 4 5 12 15 16 19 27 38 46 48 47
9 11 5 6 11 18 14 11 10 4 11 8 10 11 2 4 1 5 21 15 19 13 4 8 3 13 18 19 16 19 14 11 9 10 10 9 14 8 13 15 34 45 46 50 50
3 10 22 20 14 15 6 7 10 13 6 0 5 14 16 18 14 15 13 14 8 16 7 5 5 12 12 21 11 17 28 26 25 23 18 16 16 18 45 50 45 47 48 48 49
8 29 12 19 5 5 7 8 15 4 6 14 14 8 27 19 34 27 24 19 10 7 9 9 6 7 8 18 16 13 16 17 19 25 13 13 9 35 29 38 37 43 47 46 44
Wind_Direction_500mb
327 327 331 330 326 330 326 330 339 329 322 322 321 320 317 315 300 271 294 303 311 311 177 150 244 246 246 258 254 264 6 275 275 324 314 21 28 26 2 340 63 169 157 162 154
326 328 330 328 325 330 325 332 338 328 321 323 321 319 319 320 298 270 285 281 298 274 213 306 302 275 238 245 247 176 169 255 258 331 341 357 9 5 349 334 57 124 137 148 156
323 328 327 328 326 328 325 335 334 327 321 326 322 321 321 326 319 262 295 300 282 210 137 311 305 300 277 266 252 220 220 267 300 341 347 344 349 325 13 339 324 8 156 159 163
325 325 329 328 326 324 328 331 332 325 323 328 323 322 320 321 19 269 355 354 256 187 240 288 279 271 269 259 250 127 297 286 294 324 332 328 322 318 337 288 289 301 317 175 171
321 330 330 327 323 325 328 330 325 324 325 327 324 325 332 297 276 291 27 24 73 113 315 296 294 292 311 314 342 186 258 308 333 313 256 255 282 279 290 280 320 333 343 247 198
329 330 330 326 322 325 328 325 322 324 322 322 324 328 319 275 315 334 230 115 12 311 306 300 306 332 300 326 318 287 305 308 289 284 283 238 258 254 261 269 342 350 302 280 350
329 328 327 323 322 326 327 321 322 321 313 315 318 321 248 261 337 344 9 338 329 293 305 319 350 323 317 315 301 315 312 296 276 260 244 11 313 272 269 45 360 21 4 324 15
326 328 328 327 324 327 325 323 323 319 305 301 308 315 273 186 223 232 262 287 247 293 293 310 313 296 282 277 293 300 290 281 268 200 206 138 292 220 116 59 17 25 39 54 56
328 327 327 326 330 332 331 327 325 323 284 281 278 326 284 256 208 220 274 265 245 286 275 272 293 267 283 288 315 299 256 232 231 112 48 51 346 4 53 60 56 60 60 51 33
328 328 328 328 336 345 352 329 338 3 316 241 228 305 258 244 125 260 249 274 277 282 268 248 250 241 306 80 264 320 350 10 121 132 67 55 24 3 34 40 23 62 61 59 35
329 329 328 330 345 11 17 27 2 38 318 238 286 259 322 88 340 283 169 234 245 258 260 263 182 262 238 358 323 308 311 359 328 97 72 100 60 44 25 31 2 53 64 42 327
328 329 327 334 12 41 30 42 18 329 307 260 259 263 276 285 268 201 264 251 241 260 248 299 235 20 328 282 282 296 314 12 338 20 88 108 50 87 65 28 288 298 94 85 105
326 328 330 336 38 18 36 13 358 330 268 294 220 229 209 221 265 176 197 264 274 287 288 224 152 169 275 292 273 329 48 28 295 314 99 112 0 14 83 16 309 100 95 89 69
325 328 333 340 316 26 52 355 337 332 324 201 203 240 172 212 265 202 235 298 297 283 330 131 117 335 296 349 45 5 25 347 322 333 271 163 248 39 104 210 267 67 89 78 75
325 321 334 328 318 2 343 330 340 348 34 156 164 148 185 216 140 169 221 290 264 288 50 282 80 312 348 15 10 269 325 299 280 286 46 21 60 299 239 253 286 56 79 77 68
318 316 322 314 319 350 344 338 337 32 251 161 132 184 171 225 217 130 222 240 277 301 286 250 102 309 324 299 272 262 298 290 291 28 70 236 115 309 289 256 75 59 61 74 69
310 309 311 306 295 305 337 343 60 183 165 160 169 166 200 192 146 187 204 216 233 254 315 274 198 166 231 318 4 20 33 347 14 28 302 16 63 21 22 284 78 72 64 69 68
308 307 298 298 326 350 10 331 273 280 125 193 181 185 196 172 192 217 248 186 29 27 318 347 103 151 14 31 357 339 110 122 339 166 238 37 132 156 162 195 86 78 77 69 72
309 301 292 8 357 18 320 352 294 334 66 350 281 186 128 80 325 169 83 63 59 26 26 20 342 18 103 32 53 324 18 267 148 302 53 140 66 89 288 16 43 74 63 70 74
317 320 332 139 226 159 312 259 281 20 345 357 299 229 163 181 241 206 79 33 5 36 6 345 336 358 319 207 221 53 334 29 4 17 342 53 29 171 156 180 16 40 63 53 60
322 327 167 243 10 245 235 259 323 63 8 10 348 318 325 157 219 61 58 29 14 7 27 35 62 307 359 7 59 2 30 33 88 77 28 360 338 146 106 69 46 47 49 53 44
293 277 237 182 199 234 223 257 323 90 315 307 295 322 24 33 40 76 72 79 9 32 25 332 50 312 274 306 40 10 93 97 109 320 178 182 287 104 108 87 57 42 36 22 53
253 269 242 171 224 260 290 298 339 335 203 306 316 8 15 41 66 105 105 48 66 56 30 322 352 350 338 21 7 19 5 34 100 86 278 108 336 40 46 34 20 13 44 25 34
277 288 177 197 247 281 309 263 212 325 325 20 2 31 17 33 49 1 116 87 82 86 36 19 358 124 214 257 297 343 327 317 102 120 208 104 104 53 34 66 25 34 36 44 35
228 260 328 203 237 234 278 302 202 165 350 324 17 324 315 6 307 236 125 124 119 125 104 84 346 9 329 321 300 271 284 5 16 67 84 357 76 62 53 42 43 51 49 41 29
261 356 337 304 315 200 247 300 304 154 206 97 290 268 80 68 69 52 62 40 42 41 62 46 309 359 312 283 336 21 48 52 46 39 26 49 72 61 43 38 51 43 34 23 11
243 286 277 285 267 11 213 257 296 238 59 35 211 46 64 63 70 67 72 70 74 86 39 12 12 353 279 333 323 60 13 40 58 40 36 57 16 34 27 23 60 37 22 9 3
Wind_Speed_850mb
24 26 28 30 32 33 36 35 34 35 35 33 30 30 29 29 16 11 4 11 19 18 3 6 10 9 17 21 22 33 6 14 20 17 13 37 15 32 28 21 35 31 43 46 63
25 27 28 31 33 33 36 36 34 35 34 29 28 28 29 28 19 20 15 20 19 11 8 11 29 27 33 32 31 10 5 18 16 13 13 29 28 22 19 32 22 39 38 57 61
25 27 30 32 34 34 36 36 34 34 31 27 27 25 27 24 21 4 6 9 6 5 6 10 21 28 32 43 47 18 14 19 21 33 38 18 24 31 17 17 35 6 51 57 49
28 28 31 32 35 35 37 35 32 31 30 24 24 22 22 15 8 4 5 7 1 6 8 11 20 35 10 13 29 3 26 32 13 26 24 17 31 22 23 27 37 35 1 42 50
28 28 31 33 35 37 37 35 30 29 27 21 21 18 16 10 16 10 2 6 10 4 7 22 41 36 11 20 18 8 18 25 31 32 20 18 29 17 32 40 24 22 15 8 44
31 31 32 35 36 37 36 32 29 27 23 17 16 14 8 10 5 11 2 9 6 15 26 24 31 37 19 28 13 26 24 27 36 43 22 12 22 14 45 31 20 13 15 10 19
31 33 33 36 36 36 34 30 30 23 17 14 13 13 12 15 11 9 9 8 17 17 29 21 18 22 36 19 26 34 14 19 27 35 10 4 14 19 34 8 15 23 26 9 10
33 35 36 36 36 35 31 30 25 15 12 11 10 8 12 6 13 14 9 13 10 10 18 19 21 28 35 34 42 17 11 10 19 13 10 7 18 14 12 9 13 40 79 88 87
34 35 35 35 34 34 30 28 16 11 5 7 1 8 16 11 7 3 10 20 19 14 16 18 19 22 32 12 14 10 18 19 8 10 5 13 13 37 53 62 59 82 104 87 91
34 36 35 34 31 29 28 24 12 6 5 4 12 13 11 7 8 9 5 14 9 20 20 28 15 6 10 4 10 15 11 11 15 6 16 33 21 32 50 76 54 64 61 55 62
36 36 33 31 25 25 37 14 14 6 20 17 25 18 12 1 7 9 7 9 17 21 14 34 4 10 5 8 12 13 13 13 13 10 22 20 22 39 62 85 67 34 59 29 10
36 36 34 28 13 17 28 25 20 20 22 23 27 32 16 8 8 5 5 15 20 14 20 9 11 5 11 11 13 16 12 14 11 13 23 10 15 23 44 18 55 58 52 52 30
35 36 33 23 4 14 13 19 20 21 10 22 23 25 18 14 16 19 8 16 18 18 21 4 9 5 11 16 12 16 9 10 9 16 14 11 8 6 27 42 70 29 60 63 61
33 34 33 18 3 18 20 25 25 15 4 8 8 9 20 13 11 3 4 13 9 11 16 5 9 7 17 10 16 8 12 14 16 9 11 12 5 13 12 16 48 48 52 63 54
32 33 23 26 17 4 19 33 19 6 4 19 14 17 19 17 16 6 11 14 18 22 6 13 7 5 12 10 10 11 14 10 18 16 12 11 11 11 12 4 7 31 58 63 58
30 33 25 22 21 6 21 17 9 4 6 9 13 13 12 25 6 11 10 13 19 11 15 16 10 2 6 15 16 17 11 17 9 7 6 10 11 10 7 9 21 41 57 58 63
30 30 28 20 13 18 17 21 4 3 15 9 8 18 19 14 9 13 13 12 5 2 10 17 13 11 11 9 20 15 14 10 12 12 7 10 11 15 24 24 29 36 50 56 52
30 29 23 18 15 9 18 5 2 17 11 13 14 23 17 16 13 19 8 4 23 18 10 13 8 4 12 8 8 12 12 8 3 5 10 9 7 6 19 7 47 53 44 40 49
27 25 28 5 9 14 10 2 7 13 9 2 8 9 10 6 7 5 20 16 11 15 10 13 11 5 10 1 5 14 12 6 6 8 8 5 8 8 13 42 31 40 45 40 45
25 25 10 14 8 2 2 10 6 13 20 12 7 7 13 13 8 9 12 13 12 21 24 13 7 5 5 4 9 10 3 16 10 9 10 7 5 9 7 13 15 23 35 40 37
16 12 11 2 5 3 5 11 12 15 20 14 13 11 13 15 11 5 13 15 17 17 23 14 10 18 12 11 12 12 11 11 7 10 4 8 3 6 14 14 16 28 30 23 24
7 6 4 19 4 11 6 8 8 10 3 6 9 11 11 18 19 14 15 9 20 34 8 9 3 7 15 7 21 13 12 12 9 8 3 6 6 15 18 23 23 23 22 24 16
6 13 11 18 5 6 16 10 9 10 4 4 8 14 16 13 11 17 13 19 38 13 5 11 8 8 19 10 19 12 12 9 7 6 3 3 3 15 37 28 22 18 27 32 42
6 5 9 18 22 6 8 7 3 12 15 13 12 11 11 12 10 7 15 10 28 13 7 10 5 2 7 13 7 12 17 11 4 6 4 5 12 15 16 19 27 38 46 48 47
9 11 5 6 11 18 14 11 10 4 11 8 10 11 2 4 1 5 21 15 19 13 4 8 3 13 18 19 16 19 14 11 9 10 10 9 14 8 13 15 34 45 46 50 50
3 10 22 20 14 15 6 7 10 13 6 0 5 14 16 18 14 15 13 14 8 16 7 5 5 12 12 21 11 17 28 26 25 23 18 16 16 18 45 50 45 47 48 48 49
8 29 12 19 5 5 7 8 15 4 6 14 14 8 27 19 34 27 24 19 10 7 9 9 6 7 8 18 16 13 16 17 19 25 13 13 9 35 29 38 37 43 47 46 44
Wind_Direction_850mb
327 327 331 330 326 330 326 330 339 329 322 322 321 320 317 315 300 271 294 303 311 311 177 150 244 246 246 258 254 264 6 275 275 324 314 21 28 26 2 340 63 169 157 162 154
326 328 330 328 325 330 325 332 338 328 321 323 321 319 319 320 298 270 285 281 298 274 213 306 302 275 238 245 247 176 169 255 258 331 341 357 9 5 349 334 57 124 137 148 156
323 328 327 328 326 328 325 335 334 327 321 326 322 321 321 326 319 262 295 300 282 210 137 311 305 300 277 266 252 220 220 267 300 341 347 344 349 325 13 339 324 8 156 159 163
325 325 329 328 326 324 328 331 332 325 323 328 323 322 320 321 19 269 355 354 256 187 240 288 279 271 269 259 250 127 297 286 294 324 332 328 322 318 337 288 289 301 317 175 171
321 330 330 327 323 325 328 330 325 324 325 327 324 325 332 297 276 291 27 24 73 113 315 296 294 292 311 314 342 186 258 308 333 313 256 255 282 279 290 280 320 333 343 247 198
329 330 330 326 322 325 328 325 322 324 322 322 324 328 319 275 315 334 230 115 12 311 306 300 306 332 300 326 318 287 305 308 289 284 283 238 258 254 261 269 342 350 302 280 350
329 328 327 323 322 326 327 321 322 321 313 315 318 321 248 261 337 344 9 338 329 293 305 319 350 323 317 315 301 315 312 296 276 260 244 11 313 272 269 45 360 21 4 324 15
326 328 328 327 324 327 325 323 323 319 305 301 308 315 273 186 223 232 262 287 247 293 293 310 313 296 282 277 293 300 290 281 268 200 206 138 292 220 116 59 17 25 39 54 56
328 327 327 326 330 332 331 327 325 323 284 281 278 326 284 256 208 220 274 265 245 286 275 272 293 267 283 288 315 299 256 232 231 112 48 51 346 4 53 60 56 60 60 51 33
328 328 328 328 336 345 352 329 338 3 316 241 228 305 258 244 125 260 249 274 277 282 268 248 250 241 306 80 264 320 350 10 121 132 67 55 24 3 34 40 23 62 61 59 35
329 329 328 330 345 11 17 27 2 38 318 238 286 259 322 88 340 283 169 234 245 258 260 263 182 262 238 358 323 308 311 359 328 97 72 100 60 44 25 31 2 53 64 42 327
328 329 327 334 12 41 30 42 18 329 307 260 259 263 276 285 268 201 264 251 241 260 248 299 235 20 328 282 282 296 314 12 338 20 88 108 50 87 65 28 288 298 94 85 105
326 328 330 336 38 18 36 13 358 330 268 294 220 229 209 221 265 176 197 264 274 287 288 224 152 169 275 292 273 329 48 28 295 314 99 112 0 14 83 16 309 100 95 89 69
325 328 333 340 316 26 52 355 337 332 324 201 203 240 172 212 265 202 235 298 297 283 330 131 117 335 296 349 45 5 25 347 322 333 271 163 248 39 104 210 267 67 89 78 75
325 321 334 328 318 2 343 330 340 348 34 156 164 148 185 216 140 169 221 290 264 288 50 282 80 312 348 15 10 269 325 299 280 286 46 21 60 299 239 253 286 56 79 77 68
318 316 322 314 319 350 344 338 337 32 251 161 132 184 171 225 217 130 222 240 277 301 286 250 102 309 324 299 272 262 298 290 291 28 70 236 115 309 289 256 75 59 61 74 69
310 309 311 306 295 305 337 343 60 183 165 160 169 166 200 192 146 187 204 216 233 254 315 274 198 166 231 318 4 20 33 347 14 28 302 16 63 21 22 284 78 72 64 69 68
308 307 298 298 326 350 10 331 273 280 125 193 181 185 196 172 192 217 248 186 29 27 318 347 103 151 14 31 357 339 110 122 339 166 238 37 132 156 162 195 86 78 77 69 72
309 301 292 8 357 18 320 352 294 334 66 350 281 186 128 80 325 169 83 63 59 26 26 20 342 18 103 32 53 324 18 267 148 302 53 140 66 89 288 16 43 74 63 70 74
317 320 332 139 226 159 312 259 281 20 345 357 299 229 163 181 241 206 79 33 5 36 6 345 336 358 319 207 221 53 334 29 4 17 342 53 29 171 156 180 16 40 63 53 60
322 327 167 243 10 245 235 259 323 63 8 10 348 318 325 157 219 61 58 29 14 7 27 35 62 307 359 7 59 2 30 33 88 77 28 360 338 146 106 69 46 47 49 53 44
293 277 237 182 199 234 223 257 323 90 315 307 295 322 24 33 40 76 72 79 9 32 25 332 50 312 274 306 40 10 93 97 109 320 178 182 287 104 108 87 57 42 36 22 53
253 269 242 171 224 260 290 298 339 335 203 306 316 8 15 41 66 105 105 48 66 56 30 322 352 350 338 21 7 19 5 34 100 86 278 108 336 40 46 34 20 13 44 25 34
277 288 177 197 247 281 309 263 212 325 325 20 2 31 17 33 49 1 116 87 82 86 36 19 358 124 214 257 297 343 327 317 102 120 208 104 104 53 34 66 25 34 36 44 35
228 260 328 203 237 234 278 302 202 165 350 324 17 324 315 6 307 236 125 124 119 125 104 84 346 9 329 321 300 271 284 5 16 67 84 357 76 62 53 42 43 51 49 41 29
261 356 337 304 315 200 247 300 304 154 206 97 290 268 80 68 69 52 62 40 42 41 62 46 309 359 312 283 336 21 48 52 46 39 26 49 72 61 43 38 51 43 34 23 11
243 286 277 285 267 11 213 257 296 238 59 35 211 46 64 63 70 67 72 70 74 86 39 12 12 353 279 333 323 60 13 40 58 40 36 57 16 34 27 23 60 37 22 9 3